Time,TemperatureF,DewpointF,PressureIn,WindDirection,WindDirectionDegrees,WindSpeedMPH,WindSpeedGustMPH,Humidity,HourlyPrecipIn,Conditions,Clouds,dailyrainin,SoftwareType,DateUTC
2013-03-16 00:00:00,56.4,43.5,30.03,NNW,329,1.0,1.0,62,0.00,,,0.00,Wunderground v.1.15,2013-03-16 07:00:00,
2013-03-16 00:10:00,56.2,43.8,30.03,NNE,20,1.0,3.0,63,0.00,,,0.00,Wunderground v.1.15,2013-03-16 07:10:00,
2013-03-16 00:20:00,56.2,43.8,30.03,NW,325,2.0,2.0,63,0.00,,,0.00,Wunderground v.1.15,2013-03-16 07:20:00,
2013-03-16 00:25:00,56.1,43.7,30.03,North,358,2.0,2.0,63,0.00,,,0.00,Wunderground v.1.15,2013-03-16 07:25:00,
2013-03-16 00:30:00,56.1,44.1,30.02,NW,309,2.0,2.0,64,0.00,,,0.00,Wunderground v.1.15,2013-03-16 07:30:00,
2013-03-16 00:35:00,56.4,44.4,30.03,NNE,25,2.0,3.0,64,0.00,,,0.00,Wunderground v.1.15,2013-03-16 07:35:00,
2013-03-16 00:40:00,56.5,44.0,30.02,NW,323,2.0,2.0,63,0.00,,,0.00,Wunderground v.1.15,2013-03-16 07:40:00,
2013-03-16 00:45:00,56.3,44.3,30.02,NNW,332,2.0,2.0,64,0.00,,,0.00,Wunderground v.1.15,2013-03-16 07:45:00,
2013-03-16 00:55:00,56.0,44.4,30.02,NW,304,1.0,1.0,65,0.00,,,0.00,Wunderground v.1.15,2013-03-16 07:55:00,
2013-03-16 01:00:00,55.9,44.3,30.02,NW,316,1.0,1.0,65,0.00,,,0.00,Wunderground v.1.15,2013-03-16 08:00:00,
2013-03-16 01:10:00,55.4,44.2,30.02,NW,320,1.0,1.0,66,0.00,,,0.00,Wunderground v.1.15,2013-03-16 08:10:00,
2013-03-16 01:15:00,55.3,44.5,30.02,NNW,344,1.0,1.0,67,0.00,,,0.00,Wunderground v.1.15,2013-03-16 08:15:00,
2013-03-16 01:25:00,54.5,44.2,30.02,NNW,342,0.0,1.0,68,0.00,,,0.00,Wunderground v.1.15,2013-03-16 08:25:00,
2013-03-16 01:30:00,54.1,44.2,30.02,NNW,339,1.0,1.0,69,0.00,,,0.00,Wunderground v.1.15,2013-03-16 08:30:00,
2013-03-16 01:35:00,53.8,43.9,30.02,NE,36,1.0,1.0,69,0.00,,,0.00,Wunderground v.1.15,2013-03-16 08:35:00,
2013-03-16 01:40:00,53.6,44.0,30.02,NNW,336,1.0,1.0,70,0.00,,,0.00,Wunderground v.1.15,2013-03-16 08:40:00,
2013-03-16 01:45:00,53.4,43.9,30.02,NW,308,0.0,1.0,70,0.00,,,0.00,Wunderground v.1.15,2013-03-16 08:45:00,
2013-03-16 01:50:00,53.2,44.0,30.02,NW,308,0.0,0.0,71,0.00,,,0.00,Wunderground v.1.15,2013-03-16 08:50:00,
2013-03-16 02:00:00,52.2,43.4,30.03,East,96,0.0,0.0,72,0.00,,,0.00,Wunderground v.1.15,2013-03-16 09:00:00,
2013-03-16 02:10:00,50.9,43.3,30.03,South,181,0.0,0.0,75,0.00,,,0.00,Wunderground v.1.15,2013-03-16 09:10:00,
2013-03-16 02:15:00,50.7,43.4,30.03,SSW,211,0.0,0.0,76,0.00,,,0.00,Wunderground v.1.15,2013-03-16 09:15:00,
2013-03-16 02:20:00,50.8,43.8,30.03,NE,38,0.0,0.0,77,0.00,,,0.00,Wunderground v.1.15,2013-03-16 09:20:00,
2013-03-16 02:30:00,50.8,44.2,30.03,North,349,1.0,1.0,78,0.00,,,0.00,Wunderground v.1.15,2013-03-16 09:30:00,
2013-03-16 02:35:00,50.5,43.9,30.03,NNE,16,1.0,1.0,78,0.00,,,0.00,Wunderground v.1.15,2013-03-16 09:35:00,
2013-03-16 02:40:00,50.3,44.0,30.03,North,353,2.0,2.0,79,0.00,,,0.00,Wunderground v.1.15,2013-03-16 09:40:00,
2013-03-16 02:45:00,50.0,44.1,30.03,NW,325,2.0,2.0,80,0.00,,,0.00,Wunderground v.1.15,2013-03-16 09:45:00,
2013-03-16 02:50:00,49.8,44.2,30.03,WNW,299,1.0,1.0,81,0.00,,,0.00,Wunderground v.1.15,2013-03-16 09:50:00,
2013-03-16 02:55:00,49.5,43.9,30.03,NW,304,1.0,1.0,81,0.00,,,0.00,Wunderground v.1.15,2013-03-16 09:55:00,
2013-03-16 03:00:00,49.2,43.6,30.03,NNW,335,1.0,1.0,81,0.00,,,0.00,Wunderground v.1.15,2013-03-16 10:00:00,
2013-03-16 03:09:00,48.9,44.0,30.03,NW,322,2.0,2.0,83,0.00,,,0.00,Wunderground v.1.15,2013-03-16 10:09:00,
2013-03-16 03:14:00,48.8,44.2,30.03,West,281,2.0,2.0,84,0.00,,,0.00,Wunderground v.1.15,2013-03-16 10:14:00,
2013-03-16 03:19:00,48.6,44.0,30.02,NW,311,2.0,2.0,84,0.00,,,0.00,Wunderground v.1.15,2013-03-16 10:19:00,
2013-03-16 03:24:00,48.4,44.1,30.02,NNW,332,2.0,2.0,85,0.00,,,0.00,Wunderground v.1.15,2013-03-16 10:24:00,
2013-03-16 03:30:00,48.1,43.8,30.02,North,353,2.0,2.0,85,0.00,,,0.00,Wunderground v.1.15,2013-03-16 10:30:00,
2013-03-16 03:35:00,48.0,43.7,30.02,WNW,302,2.0,3.0,85,0.00,,,0.00,Wunderground v.1.15,2013-03-16 10:35:00,
2013-03-16 03:40:00,47.9,43.9,30.02,NNW,339,2.0,3.0,86,0.00,,,0.00,Wunderground v.1.15,2013-03-16 10:40:00,
2013-03-16 03:45:00,47.6,43.6,30.02,NNW,333,2.0,3.0,86,0.00,,,0.00,Wunderground v.1.15,2013-03-16 10:45:00,
2013-03-16 03:50:00,47.4,43.4,30.02,NW,325,2.0,3.0,86,0.00,,,0.00,Wunderground v.1.15,2013-03-16 10:50:00,
2013-03-16 03:55:00,47.2,43.2,30.02,NW,318,2.0,3.0,86,0.00,,,0.00,Wunderground v.1.15,2013-03-16 10:55:00,
2013-03-16 04:00:00,47.1,43.4,30.02,NNW,338,2.0,2.0,87,0.00,,,0.00,Wunderground v.1.15,2013-03-16 11:00:00,
2013-03-16 04:10:00,46.9,43.5,30.02,NNW,336,2.0,2.0,88,0.00,,,0.00,Wunderground v.1.15,2013-03-16 11:10:00,
2013-03-16 04:15:00,46.7,43.3,30.02,North,358,2.0,2.0,88,0.00,,,0.00,Wunderground v.1.15,2013-03-16 11:15:00,
2013-03-16 04:20:00,46.5,43.4,30.02,NNW,347,2.0,2.0,89,0.00,,,0.00,Wunderground v.1.15,2013-03-16 11:20:00,
2013-03-16 04:25:00,46.5,43.4,30.02,North,360,1.0,3.0,89,0.00,,,0.00,Wunderground v.1.15,2013-03-16 11:25:00,
2013-03-16 04:30:00,46.4,43.3,30.01,NNW,335,2.0,2.0,89,0.00,,,0.00,Wunderground v.1.15,2013-03-16 11:30:00,
2013-03-16 04:40:00,45.8,43.0,30.02,NW,316,2.0,2.0,90,0.00,,,0.00,Wunderground v.1.15,2013-03-16 11:40:00,
2013-03-16 04:45:00,45.6,43.1,30.01,NNW,344,2.0,2.0,91,0.00,,,0.00,Wunderground v.1.15,2013-03-16 11:45:00,
2013-03-16 04:50:00,45.3,42.8,30.01,WNW,290,2.0,2.0,91,0.00,,,0.00,Wunderground v.1.15,2013-03-16 11:50:00,
2013-03-16 04:55:00,45.1,42.9,30.01,WNW,297,2.0,2.0,92,0.00,,,0.00,Wunderground v.1.15,2013-03-16 11:55:00,
2013-03-16 05:00:00,44.9,43.0,30.01,NNW,333,3.0,3.0,93,0.00,,,0.00,Wunderground v.1.15,2013-03-16 12:00:00,
2013-03-16 05:10:00,44.7,42.8,30.00,NE,41,2.0,2.0,93,0.00,,,0.00,Wunderground v.1.15,2013-03-16 12:10:00,
2013-03-16 05:15:00,44.5,42.6,30.01,NNE,16,2.0,2.0,93,0.00,,,0.00,Wunderground v.1.15,2013-03-16 12:15:00,
2013-03-16 05:20:00,44.4,42.5,30.01,North,351,2.0,2.0,93,0.00,,,0.00,Wunderground v.1.15,2013-03-16 12:20:00,
2013-03-16 05:25:00,44.3,42.4,30.01,North,354,1.0,2.0,93,0.00,,,0.00,Wunderground v.1.15,2013-03-16 12:25:00,
2013-03-16 05:30:00,44.2,42.6,30.01,ENE,77,0.0,0.0,94,0.00,,,0.00,Wunderground v.1.15,2013-03-16 12:30:00,
2013-03-16 05:35:00,44.3,42.7,30.02,NNE,23,0.0,0.0,94,0.00,,,0.00,Wunderground v.1.15,2013-03-16 12:35:00,
2013-03-16 05:45:00,44.4,42.8,30.01,NNE,23,0.0,0.0,94,0.00,,,0.00,Wunderground v.1.15,2013-03-16 12:45:00,
2013-03-16 05:50:00,44.7,43.4,30.01,NNW,348,0.0,0.0,95,0.00,,,0.00,Wunderground v.1.15,2013-03-16 12:50:00,
2013-03-16 05:55:00,44.8,43.5,30.02,North,8,0.0,0.0,95,0.00,,,0.00,Wunderground v.1.15,2013-03-16 12:55:00,
2013-03-16 06:00:00,45.0,43.7,30.02,North,358,0.0,1.0,95,0.00,,,0.00,Wunderground v.1.15,2013-03-16 13:00:00,
2013-03-16 06:10:00,45.1,43.8,30.03,NNW,342,2.0,2.0,95,0.00,,,0.00,Wunderground v.1.15,2013-03-16 13:10:00,
2013-03-16 06:15:00,44.9,43.6,30.03,NNE,33,2.0,2.0,95,0.00,,,0.00,Wunderground v.1.15,2013-03-16 13:15:00,
2013-03-16 06:20:00,44.6,43.0,30.03,NW,312,2.0,2.0,94,0.00,,,0.00,Wunderground v.1.15,2013-03-16 13:20:00,
2013-03-16 06:25:00,44.3,43.0,30.03,NNW,342,1.0,2.0,95,0.00,,,0.00,Wunderground v.1.15,2013-03-16 13:25:00,
2013-03-16 06:30:00,44.3,43.0,30.03,NNE,23,1.0,2.0,95,0.00,,,0.00,Wunderground v.1.15,2013-03-16 13:30:00,
2013-03-16 06:35:00,44.2,42.9,30.03,North,4,1.0,2.0,95,0.00,,,0.00,Wunderground v.1.15,2013-03-16 13:35:00,
2013-03-16 06:40:00,44.2,42.9,30.03,NNW,347,1.0,1.0,95,0.00,,,0.00,Wunderground v.1.15,2013-03-16 13:40:00,
2013-03-16 06:50:00,44.1,42.8,30.03,NNE,15,1.0,1.0,95,0.00,,,0.00,Wunderground v.1.15,2013-03-16 13:50:00,
2013-03-16 06:55:00,44.2,42.9,30.03,NE,38,0.0,1.0,95,0.00,,,0.00,Wunderground v.1.15,2013-03-16 13:55:00,
2013-03-16 07:00:00,44.3,43.2,30.03,NW,318,0.0,0.0,96,0.00,,,0.00,Wunderground v.1.15,2013-03-16 14:00:00,
2013-03-16 07:09:00,44.2,42.9,30.04,North,350,0.0,0.0,95,0.00,,,0.00,Wunderground v.1.15,2013-03-16 14:09:00,
2013-03-16 07:14:00,44.1,42.8,30.04,North,349,0.0,1.0,95,0.00,,,0.00,Wunderground v.1.15,2013-03-16 14:14:00,
2013-03-16 07:20:00,44.3,43.2,30.03,WNW,293,1.0,2.0,96,0.00,,,0.00,Wunderground v.1.15,2013-03-16 14:20:00,
2013-03-16 07:25:00,44.4,43.3,30.03,NNE,25,1.0,2.0,96,0.00,,,0.00,Wunderground v.1.15,2013-03-16 14:25:00,
2013-03-16 07:30:00,44.6,43.5,30.03,NNW,328,0.0,0.0,96,0.00,,,0.00,Wunderground v.1.15,2013-03-16 14:30:00,
2013-03-16 07:35:00,44.7,43.6,30.03,NNW,343,0.0,1.0,96,0.00,,,0.00,Wunderground v.1.15,2013-03-16 14:35:00,
2013-03-16 07:40:00,44.8,43.7,30.04,NNW,332,1.0,1.0,96,0.00,,,0.00,Wunderground v.1.15,2013-03-16 14:40:00,
2013-03-16 07:45:00,44.9,43.8,30.03,North,351,1.0,1.0,96,0.00,,,0.00,Wunderground v.1.15,2013-03-16 14:45:00,
2013-03-16 07:55:00,45.1,44.0,30.03,NNW,332,1.0,2.0,96,0.00,,,0.00,Wunderground v.1.15,2013-03-16 14:55:00,
2013-03-16 08:00:00,45.0,43.9,30.04,NNE,27,1.0,2.0,96,0.00,,,0.00,Wunderground v.1.15,2013-03-16 15:00:00,
2013-03-16 08:10:00,44.9,43.8,30.04,North,6,1.0,1.0,96,0.00,,,0.00,Wunderground v.1.15,2013-03-16 15:10:00,
2013-03-16 08:15:00,45.0,43.9,30.04,North,8,1.0,2.0,96,0.00,,,0.00,Wunderground v.1.15,2013-03-16 15:15:00,
2013-03-16 08:25:00,45.3,44.2,30.04,NNE,29,1.0,1.0,96,0.00,,,0.00,Wunderground v.1.15,2013-03-16 15:25:00,
2013-03-16 08:30:00,45.5,44.4,30.04,NNE,19,1.0,3.0,96,0.00,,,0.00,Wunderground v.1.15,2013-03-16 15:30:00,
2013-03-16 08:35:00,45.5,44.4,30.05,NE,41,2.0,3.0,96,0.00,,,0.00,Wunderground v.1.15,2013-03-16 15:35:00,
2013-03-16 08:40:00,45.4,44.3,30.05,North,357,2.0,2.0,96,0.00,,,0.00,Wunderground v.1.15,2013-03-16 15:40:00,
2013-03-16 08:45:00,45.8,44.7,30.05,North,353,2.0,2.0,96,0.00,,,0.00,Wunderground v.1.15,2013-03-16 15:45:00,
2013-03-16 08:50:00,45.9,44.8,30.06,North,353,1.0,1.0,96,0.00,,,0.00,Wunderground v.1.15,2013-03-16 15:50:00,
2013-03-16 09:00:00,46.2,45.1,30.06,North,4,2.0,2.0,96,0.00,,,0.00,Wunderground v.1.15,2013-03-16 16:00:00,
2013-03-16 09:10:00,46.8,45.7,30.06,NNE,29,1.0,2.0,96,0.00,,,0.00,Wunderground v.1.15,2013-03-16 16:10:00,
2013-03-16 09:15:00,47.0,45.9,30.06,NNW,340,2.0,2.0,96,0.00,,,0.00,Wunderground v.1.15,2013-03-16 16:15:00,
2013-03-16 09:20:00,47.1,46.0,30.06,NE,36,2.0,2.0,96,0.00,,,0.00,Wunderground v.1.15,2013-03-16 16:20:00,
2013-03-16 09:30:00,47.7,46.3,30.07,North,6,2.0,2.0,95,0.00,,,0.00,Wunderground v.1.15,2013-03-16 16:30:00,
2013-03-16 09:35:00,48.3,46.9,30.07,NNW,342,2.0,2.0,95,0.00,,,0.00,Wunderground v.1.15,2013-03-16 16:35:00,
2013-03-16 09:40:00,49.3,47.9,30.07,NNE,27,2.0,4.0,95,0.00,,,0.00,Wunderground v.1.15,2013-03-16 16:40:00,
2013-03-16 09:45:00,50.0,48.1,30.06,NE,41,2.0,4.0,93,0.00,,,0.00,Wunderground v.1.15,2013-03-16 16:45:00,
2013-03-16 09:50:00,50.3,47.5,30.06,NE,39,2.0,3.0,90,0.00,,,0.00,Wunderground v.1.15,2013-03-16 16:50:00,
2013-03-16 09:55:00,51.0,48.2,30.06,NNW,343,2.0,3.0,90,0.00,,,0.00,Wunderground v.1.15,2013-03-16 16:55:00,
2013-03-16 10:00:00,51.3,47.6,30.06,NNE,29,2.0,4.0,87,0.00,,,0.00,Wunderground v.1.15,2013-03-16 17:00:00,
2013-03-16 10:10:00,52.6,48.2,30.06,NE,36,2.0,2.0,85,0.00,,,0.00,Wunderground v.1.15,2013-03-16 17:10:00,
2013-03-16 10:15:00,53.6,48.9,30.06,NNW,348,1.0,2.0,84,0.00,,,0.00,Wunderground v.1.15,2013-03-16 17:15:00,
2013-03-16 10:20:00,54.5,49.1,30.06,North,6,1.0,1.0,82,0.00,,,0.00,Wunderground v.1.15,2013-03-16 17:20:00,
2013-03-16 10:25:00,55.1,48.7,30.06,NE,43,2.0,2.0,79,0.00,,,0.00,Wunderground v.1.15,2013-03-16 17:25:00,
2013-03-16 10:35:00,56.6,49.8,30.07,NNW,336,2.0,2.0,78,0.00,,,0.00,Wunderground v.1.15,2013-03-16 17:35:00,
2013-03-16 10:40:00,57.8,49.9,30.07,NE,37,2.0,4.0,75,0.00,,,0.00,Wunderground v.1.15,2013-03-16 17:40:00,
2013-03-16 10:45:00,58.2,48.8,30.07,WSW,252,3.0,4.0,71,0.00,,,0.00,Wunderground v.1.15,2013-03-16 17:45:00,
2013-03-16 10:50:00,58.8,48.6,30.07,NNW,339,3.0,3.0,69,0.00,,,0.00,Wunderground v.1.15,2013-03-16 17:50:00,
2013-03-16 10:55:00,59.2,49.4,30.07,WNW,297,3.0,3.0,70,0.00,,,0.00,Wunderground v.1.15,2013-03-16 17:55:00,
2013-03-16 11:00:00,59.7,48.7,30.07,NE,40,2.0,2.0,67,0.00,,,0.00,Wunderground v.1.15,2013-03-16 18:00:00,
2013-03-16 11:10:00,60.9,49.5,30.07,NW,308,3.0,3.0,66,0.00,,,0.00,Wunderground v.1.15,2013-03-16 18:10:00,
2013-03-16 11:15:00,61.8,48.6,30.07,WNW,295,2.0,4.0,62,0.00,,,0.00,Wunderground v.1.15,2013-03-16 18:15:00,
2013-03-16 11:20:00,62.4,48.8,30.06,NNW,337,3.0,3.0,61,0.00,,,0.00,Wunderground v.1.15,2013-03-16 18:20:00,
2013-03-16 11:25:00,62.8,48.7,30.06,NNE,19,3.0,3.0,60,0.00,,,0.00,Wunderground v.1.15,2013-03-16 18:25:00,
2013-03-16 11:30:00,62.5,48.0,30.05,NE,46,3.0,3.0,59,0.00,,,0.00,Wunderground v.1.15,2013-03-16 18:30:00,
2013-03-16 11:35:00,63.3,48.3,30.06,North,6,2.0,3.0,58,0.00,,,0.00,Wunderground v.1.15,2013-03-16 18:35:00,
2013-03-16 11:40:00,64.5,48.9,30.05,NNE,26,2.0,5.0,57,0.00,,,0.00,Wunderground v.1.15,2013-03-16 18:40:00,
2013-03-16 11:45:00,64.3,47.8,30.05,NE,53,3.0,5.0,55,0.00,,,0.00,Wunderground v.1.15,2013-03-16 18:45:00,
2013-03-16 11:50:00,64.2,47.7,30.04,SE,125,3.0,3.0,55,0.00,,,0.00,Wunderground v.1.15,2013-03-16 18:50:00,
2013-03-16 11:55:00,65.1,48.0,30.04,ENE,60,2.0,3.0,54,0.00,,,0.00,Wunderground v.1.15,2013-03-16 18:55:00,
2013-03-16 12:00:00,66.2,47.5,30.04,NE,50,1.0,2.0,51,0.00,,,0.00,Wunderground v.1.15,2013-03-16 19:00:00,
2013-03-16 12:10:00,67.0,47.2,30.03,NNE,33,3.0,3.0,49,0.00,,,0.00,Wunderground v.1.15,2013-03-16 19:10:00,
2013-03-16 12:15:00,67.2,47.9,30.03,NNE,32,2.0,3.0,50,0.00,,,0.00,Wunderground v.1.15,2013-03-16 19:15:00,
2013-03-16 12:20:00,68.1,48.2,30.03,NW,319,2.0,2.0,49,0.00,,,0.00,Wunderground v.1.15,2013-03-16 19:20:00,
2013-03-16 12:25:00,68.8,47.7,30.03,North,357,2.0,5.0,47,0.00,,,0.00,Wunderground v.1.15,2013-03-16 19:25:00,
2013-03-16 12:30:00,69.0,47.9,30.03,North,5,3.0,3.0,47,0.00,,,0.00,Wunderground v.1.15,2013-03-16 19:30:00,
2013-03-16 12:35:00,69.3,49.9,30.03,NW,324,2.0,3.0,50,0.00,,,0.00,Wunderground v.1.15,2013-03-16 19:35:00,
2013-03-16 12:45:00,70.2,46.6,30.03,NE,40,3.0,4.0,43,0.00,,,0.00,Wunderground v.1.15,2013-03-16 19:45:00,
2013-03-16 12:50:00,70.7,48.3,30.03,NW,307,3.0,3.0,45,0.00,,,0.00,Wunderground v.1.15,2013-03-16 19:50:00,
2013-03-16 12:55:00,71.3,47.6,30.02,NE,40,3.0,4.0,43,0.00,,,0.00,Wunderground v.1.15,2013-03-16 19:55:00,
2013-03-16 13:00:00,71.6,49.1,30.02,ENE,61,3.0,3.0,45,0.00,,,0.00,Wunderground v.1.15,2013-03-16 20:00:00,
2013-03-16 13:10:00,72.2,47.8,30.02,NW,316,3.0,3.0,42,0.00,,,0.00,Wunderground v.1.15,2013-03-16 20:10:00,
2013-03-16 13:15:00,72.8,45.7,30.02,North,358,2.0,3.0,38,0.00,,,0.00,Wunderground v.1.15,2013-03-16 20:15:00,
2013-03-16 13:20:00,72.6,46.9,30.01,West,267,3.0,3.0,40,0.00,,,0.00,Wunderground v.1.15,2013-03-16 20:20:00,
2013-03-16 13:25:00,73.2,46.8,30.01,NW,321,2.0,3.0,39,0.00,,,0.00,Wunderground v.1.15,2013-03-16 20:25:00,
2013-03-16 13:30:00,73.6,48.4,30.01,North,360,2.0,2.0,41,0.00,,,0.00,Wunderground v.1.15,2013-03-16 20:30:00,
2013-03-16 13:35:00,73.7,45.8,30.01,North,355,3.0,3.0,37,0.00,,,0.00,Wunderground v.1.15,2013-03-16 20:35:00,
2013-03-16 13:40:00,74.4,46.4,30.01,NNE,15,3.0,3.0,37,0.00,,,0.00,Wunderground v.1.15,2013-03-16 20:40:00,
2013-03-16 13:50:00,75.2,47.1,30.01,NNE,29,3.0,3.0,37,0.00,,,0.00,Wunderground v.1.15,2013-03-16 20:50:00,
2013-03-16 13:55:00,75.4,45.8,30.01,NE,39,3.0,3.0,35,0.00,,,0.00,Wunderground v.1.15,2013-03-16 20:55:00,
2013-03-16 14:00:00,75.6,46.8,30.01,North,350,3.0,3.0,36,0.00,,,0.00,Wunderground v.1.15,2013-03-16 21:00:00,
2013-03-16 14:10:00,76.1,47.2,30.00,North,9,2.0,5.0,36,0.00,,,0.00,Wunderground v.1.15,2013-03-16 21:10:00,
2013-03-16 14:20:00,76.2,47.3,29.99,ENE,72,2.0,2.0,36,0.00,,,0.00,Wunderground v.1.15,2013-03-16 21:20:00,
2013-03-16 14:25:00,76.2,45.0,29.99,East,94,2.0,2.0,33,0.00,,,0.00,Wunderground v.1.15,2013-03-16 21:25:00,
2013-03-16 14:30:00,76.4,46.7,29.99,SW,231,2.0,3.0,35,0.00,,,0.00,Wunderground v.1.15,2013-03-16 21:30:00,
2013-03-16 14:35:00,76.8,46.3,29.99,NW,306,1.0,3.0,34,0.00,,,0.00,Wunderground v.1.15,2013-03-16 21:35:00,
2013-03-16 14:40:00,77.3,45.9,29.99,WSW,257,1.0,5.0,33,0.00,,,0.00,Wunderground v.1.15,2013-03-16 21:40:00,
2013-03-16 14:45:00,78.0,46.6,29.99,WSW,239,1.0,5.0,33,0.00,,,0.00,Wunderground v.1.15,2013-03-16 21:45:00,
2013-03-16 14:55:00,78.0,46.6,29.98,NE,39,2.0,2.0,33,0.00,,,0.00,Wunderground v.1.15,2013-03-16 21:55:00,
2013-03-16 15:00:00,78.1,45.8,29.98,NNW,340,2.0,3.0,32,0.00,,,0.00,Wunderground v.1.15,2013-03-16 22:00:00,
2013-03-16 15:10:00,78.1,47.4,29.98,NNW,342,2.0,2.0,34,0.00,,,0.00,Wunderground v.1.15,2013-03-16 22:10:00,
2013-03-16 15:15:00,78.7,47.2,29.97,NE,46,1.0,2.0,33,0.00,,,0.00,Wunderground v.1.15,2013-03-16 22:15:00,
2013-03-16 15:25:00,78.5,43.6,29.97,West,263,2.0,2.0,29,0.00,,,0.00,Wunderground v.1.15,2013-03-16 22:25:00,
2013-03-16 15:30:00,78.5,44.5,29.96,WSW,245,1.0,1.0,30,0.00,,,0.00,Wunderground v.1.15,2013-03-16 22:30:00,
2013-03-16 15:35:00,79.6,46.3,29.96,North,351,1.0,3.0,31,0.00,,,0.00,Wunderground v.1.15,2013-03-16 22:35:00,
2013-03-16 15:40:00,79.3,44.3,29.96,NW,305,2.0,2.0,29,0.00,,,0.00,Wunderground v.1.15,2013-03-16 22:40:00,
2013-03-16 15:45:00,78.9,43.0,29.96,NNE,23,3.0,3.0,28,0.00,,,0.00,Wunderground v.1.15,2013-03-16 22:45:00,
2013-03-16 15:50:00,78.8,43.8,29.96,ENE,67,3.0,3.0,29,0.00,,,0.00,Wunderground v.1.15,2013-03-16 22:50:00,
2013-03-16 15:55:00,78.9,43.0,29.96,East,79,2.0,3.0,28,0.00,,,0.00,Wunderground v.1.15,2013-03-16 22:55:00,
2013-03-16 16:00:00,79.2,45.1,29.96,NW,320,2.0,4.0,30,0.00,,,0.00,Wunderground v.1.15,2013-03-16 23:00:00,
2013-03-16 16:09:00,78.7,43.8,29.97,NNE,22,5.0,9.0,29,0.00,,,0.00,Wunderground v.1.15,2013-03-16 23:09:00,
2013-03-16 16:14:00,78.4,44.4,29.97,NNE,20,6.0,9.0,30,0.00,,,0.00,Wunderground v.1.15,2013-03-16 23:14:00,
2013-03-16 16:19:00,78.3,44.3,29.97,North,354,6.0,6.0,30,0.00,,,0.00,Wunderground v.1.15,2013-03-16 23:19:00,
2013-03-16 16:25:00,78.0,42.2,29.97,NNE,20,5.0,9.0,28,0.00,,,0.00,Wunderground v.1.15,2013-03-16 23:25:00,
2013-03-16 16:30:00,77.8,43.0,29.97,NNE,20,6.0,6.0,29,0.00,,,0.00,Wunderground v.1.15,2013-03-16 23:30:00,
2013-03-16 16:35:00,77.8,43.0,29.97,NE,36,6.0,6.0,29,0.00,,,0.00,Wunderground v.1.15,2013-03-16 23:35:00,
2013-03-16 16:40:00,78.0,43.2,29.97,NE,37,5.0,5.0,29,0.00,,,0.00,Wunderground v.1.15,2013-03-16 23:40:00,
2013-03-16 16:45:00,78.1,42.3,29.97,NNE,20,5.0,6.0,28,0.00,,,0.00,Wunderground v.1.15,2013-03-16 23:45:00,
2013-03-16 16:50:00,78.3,42.5,29.97,North,349,5.0,5.0,28,0.00,,,0.00,Wunderground v.1.15,2013-03-16 23:50:00,
2013-03-16 17:00:00,78.3,41.6,29.96,NE,50,4.0,4.0,27,0.00,,,0.00,Wunderground v.1.15,2013-03-17 00:00:00,
2013-03-16 17:10:00,77.7,40.1,29.97,WNW,299,6.0,6.0,26,0.00,,,0.00,Wunderground v.1.15,2013-03-17 00:10:00,
2013-03-16 17:15:00,77.7,40.1,29.97,NE,41,5.0,6.0,26,0.00,,,0.00,Wunderground v.1.15,2013-03-17 00:15:00,
2013-03-16 17:20:00,77.5,38.9,29.97,NE,46,5.0,5.0,25,0.00,,,0.00,Wunderground v.1.15,2013-03-17 00:20:00,
2013-03-16 17:25:00,77.6,39.0,29.97,NE,39,5.0,8.0,25,0.00,,,0.00,Wunderground v.1.15,2013-03-17 00:25:00,
2013-03-16 17:35:00,77.1,39.6,29.97,NE,46,5.0,8.0,26,0.00,,,0.00,Wunderground v.1.15,2013-03-17 00:35:00,
2013-03-16 17:40:00,76.8,39.3,29.97,NW,312,6.0,7.0,26,0.00,,,0.00,Wunderground v.1.15,2013-03-17 00:40:00,
2013-03-16 17:45:00,76.5,39.0,29.97,North,355,6.0,8.0,26,0.00,,,0.00,Wunderground v.1.15,2013-03-17 00:45:00,
2013-03-16 17:50:00,76.1,40.6,29.97,North,8,5.0,5.0,28,0.00,,,0.00,Wunderground v.1.15,2013-03-17 00:50:00,
2013-03-16 17:55:00,75.9,40.4,29.97,NNW,327,4.0,5.0,28,0.00,,,0.00,Wunderground v.1.15,2013-03-17 00:55:00,
2013-03-16 18:00:00,75.6,41.1,29.97,NNE,25,4.0,8.0,29,0.00,,,0.00,Wunderground v.1.15,2013-03-17 01:00:00,
2013-03-16 18:10:00,74.6,41.1,29.98,North,356,5.0,5.0,30,0.00,,,0.00,Wunderground v.1.15,2013-03-17 01:10:00,
2013-03-16 18:15:00,74.0,41.4,29.98,NE,39,4.0,5.0,31,0.00,,,0.00,Wunderground v.1.15,2013-03-17 01:15:00,
2013-03-16 18:20:00,73.5,40.2,29.98,NNW,348,3.0,4.0,30,0.00,,,0.00,Wunderground v.1.15,2013-03-17 01:20:00,
2013-03-16 18:25:00,72.8,40.4,29.98,WNW,300,4.0,5.0,31,0.00,,,0.00,Wunderground v.1.15,2013-03-17 01:25:00,
2013-03-16 18:30:00,71.9,39.6,29.98,NNE,18,4.0,6.0,31,0.00,,,0.00,Wunderground v.1.15,2013-03-17 01:30:00,
2013-03-16 18:40:00,70.9,38.7,29.98,WNW,288,4.0,4.0,31,0.00,,,0.00,Wunderground v.1.15,2013-03-17 01:40:00,
2013-03-16 18:45:00,70.2,38.9,29.98,NNW,348,4.0,4.0,32,0.00,,,0.00,Wunderground v.1.15,2013-03-17 01:45:00,
2013-03-16 18:50:00,69.8,38.6,29.98,NNE,12,4.0,6.0,32,0.00,,,0.00,Wunderground v.1.15,2013-03-17 01:50:00,
2013-03-16 18:55:00,69.5,37.5,29.98,NE,36,5.0,6.0,31,0.00,,,0.00,Wunderground v.1.15,2013-03-17 01:55:00,
2013-03-16 19:00:00,69.1,38.0,29.98,North,354,5.0,5.0,32,0.00,,,0.00,Wunderground v.1.15,2013-03-17 02:00:00,
2013-03-16 19:10:00,68.2,39.5,29.98,NNW,337,3.0,3.0,35,0.00,,,0.00,Wunderground v.1.15,2013-03-17 02:10:00,
2013-03-16 19:15:00,67.6,39.7,29.98,North,358,3.0,6.0,36,0.00,,,0.00,Wunderground v.1.15,2013-03-17 02:15:00,
2013-03-16 19:20:00,67.2,40.0,29.98,North,8,3.0,4.0,37,0.00,,,0.00,Wunderground v.1.15,2013-03-17 02:20:00,
2013-03-16 19:25:00,66.7,40.3,29.99,NNW,336,3.0,4.0,38,0.00,,,0.00,Wunderground v.1.15,2013-03-17 02:25:00,
2013-03-16 19:30:00,66.3,40.6,29.99,NW,318,3.0,3.0,39,0.00,,,0.00,Wunderground v.1.15,2013-03-17 02:30:00,
2013-03-16 19:35:00,65.8,40.8,29.99,NW,316,3.0,3.0,40,0.00,,,0.00,Wunderground v.1.15,2013-03-17 02:35:00,
2013-03-16 19:45:00,64.7,40.4,29.99,NNW,330,3.0,3.0,41,0.00,,,0.00,Wunderground v.1.15,2013-03-17 02:45:00,
2013-03-16 19:50:00,64.1,41.1,29.99,NNW,347,3.0,4.0,43,0.00,,,0.00,Wunderground v.1.15,2013-03-17 02:50:00,
2013-03-16 19:55:00,63.9,41.5,30.00,NNW,341,3.0,4.0,44,0.00,,,0.00,Wunderground v.1.15,2013-03-17 02:55:00,
2013-03-16 20:00:00,63.5,41.8,30.00,North,8,3.0,4.0,45,0.00,,,0.00,Wunderground v.1.15,2013-03-17 03:00:00,
2013-03-16 20:10:00,62.4,41.3,30.00,ENE,65,4.0,6.0,46,0.00,,,0.00,Wunderground v.1.15,2013-03-17 03:10:00,
2013-03-16 20:15:00,61.9,41.4,30.00,North,355,4.0,6.0,47,0.00,,,0.00,Wunderground v.1.15,2013-03-17 03:15:00,
2013-03-16 20:20:00,61.5,41.1,30.00,NNE,20,4.0,4.0,47,0.00,,,0.00,Wunderground v.1.15,2013-03-17 03:20:00,
2013-03-16 20:25:00,61.3,40.9,30.01,NNE,33,4.0,6.0,47,0.00,,,0.00,Wunderground v.1.15,2013-03-17 03:25:00,
2013-03-16 20:30:00,61.0,41.2,30.01,NNE,15,4.0,4.0,48,0.00,,,0.00,Wunderground v.1.15,2013-03-17 03:30:00,
2013-03-16 20:35:00,60.8,41.0,30.01,NNE,26,4.0,4.0,48,0.00,,,0.00,Wunderground v.1.15,2013-03-17 03:35:00,
2013-03-16 20:40:00,60.4,40.6,30.00,North,350,4.0,4.0,48,0.00,,,0.00,Wunderground v.1.15,2013-03-17 03:40:00,
2013-03-16 20:50:00,60.1,40.9,30.01,NNE,15,3.0,4.0,49,0.00,,,0.00,Wunderground v.1.15,2013-03-17 03:50:00,
2013-03-16 20:55:00,59.9,40.7,30.01,NNW,336,3.0,4.0,49,0.00,,,0.00,Wunderground v.1.15,2013-03-17 03:55:00,
2013-03-16 21:00:00,59.5,40.8,30.01,NW,316,3.0,3.0,50,0.00,,,0.00,Wunderground v.1.15,2013-03-17 04:00:00,
2013-03-16 21:10:00,58.4,40.8,30.01,NNW,327,3.0,3.0,52,0.00,,,0.00,Wunderground v.1.15,2013-03-17 04:10:00,
2013-03-16 21:15:00,57.8,41.3,30.01,NW,304,2.0,3.0,54,0.00,,,0.00,Wunderground v.1.15,2013-03-17 04:15:00,
2013-03-16 21:20:00,57.4,41.4,30.02,NW,313,2.0,2.0,55,0.00,,,0.00,Wunderground v.1.15,2013-03-17 04:20:00,
2013-03-16 21:29:00,56.7,40.7,30.02,NW,325,2.0,2.0,55,0.00,,,0.00,Wunderground v.1.15,2013-03-17 04:29:00,
2013-03-16 21:34:00,56.9,40.4,30.03,North,4,2.0,2.0,54,0.00,,,0.00,Wunderground v.1.15,2013-03-17 04:34:00,
2013-03-16 21:39:00,57.1,40.1,30.03,NW,315,2.0,2.0,53,0.00,,,0.00,Wunderground v.1.15,2013-03-17 04:39:00,
2013-03-16 21:44:00,57.2,39.7,30.03,NW,312,2.0,3.0,52,0.00,,,0.00,Wunderground v.1.15,2013-03-17 04:44:00,
2013-03-16 21:50:00,57.5,39.5,30.03,NNW,342,3.0,3.0,51,0.00,,,0.00,Wunderground v.1.15,2013-03-17 04:50:00,
2013-03-16 21:55:00,57.9,39.4,30.03,NW,305,3.0,6.0,50,0.00,,,0.00,Wunderground v.1.15,2013-03-17 04:55:00,
2013-03-16 22:00:00,58.3,38.7,30.03,NW,309,4.0,4.0,48,0.00,,,0.00,Wunderground v.1.15,2013-03-17 05:00:00,
2013-03-16 22:10:00,58.3,38.7,30.03,WNW,296,3.0,4.0,48,0.00,,,0.00,Wunderground v.1.15,2013-03-17 05:10:00,
2013-03-16 22:15:00,58.2,38.6,30.03,NW,322,3.0,4.0,48,0.00,,,0.00,Wunderground v.1.15,2013-03-17 05:15:00,
2013-03-16 22:20:00,57.9,38.8,30.03,NW,325,3.0,3.0,49,0.00,,,0.00,Wunderground v.1.15,2013-03-17 05:20:00,
2013-03-16 22:25:00,57.6,39.1,30.03,NW,311,3.0,3.0,50,0.00,,,0.00,Wunderground v.1.15,2013-03-17 05:25:00,
2013-03-16 22:30:00,57.3,38.8,30.03,NW,318,3.0,4.0,50,0.00,,,0.00,Wunderground v.1.15,2013-03-17 05:30:00,
2013-03-16 22:35:00,57.5,39.0,30.03,NW,318,4.0,4.0,50,0.00,,,0.00,Wunderground v.1.15,2013-03-17 05:35:00,
2013-03-16 22:40:00,57.7,38.7,30.03,North,353,4.0,4.0,49,0.00,,,0.00,Wunderground v.1.15,2013-03-17 05:40:00,
2013-03-16 22:45:00,57.8,38.8,30.04,NW,325,3.0,4.0,49,0.00,,,0.00,Wunderground v.1.15,2013-03-17 05:45:00,
2013-03-16 22:55:00,57.6,39.1,30.04,NNW,335,4.0,4.0,50,0.00,,,0.00,Wunderground v.1.15,2013-03-17 05:55:00,
2013-03-16 23:00:00,57.6,39.1,30.04,NW,323,4.0,4.0,50,0.00,,,0.00,Wunderground v.1.15,2013-03-17 06:00:00,
2013-03-16 23:10:00,57.1,39.6,30.04,North,354,4.0,5.0,52,0.00,,,0.00,Wunderground v.1.15,2013-03-17 06:10:00,
2013-03-16 23:15:00,57.0,39.5,30.04,NNW,331,4.0,5.0,52,0.00,,,0.00,Wunderground v.1.15,2013-03-17 06:15:00,
2013-03-16 23:20:00,56.8,39.4,30.04,NNW,333,4.0,4.0,52,0.00,,,0.00,Wunderground v.1.15,2013-03-17 06:20:00,
2013-03-16 23:30:00,56.7,39.3,30.04,NNW,330,5.0,5.0,52,0.00,,,0.00,Wunderground v.1.15,2013-03-17 06:30:00,
2013-03-16 23:35:00,56.5,39.6,30.05,NW,304,5.0,5.0,53,0.00,,,0.00,Wunderground v.1.15,2013-03-17 06:35:00,
2013-03-16 23:40:00,56.0,39.6,30.04,WNW,302,4.0,4.0,54,0.00,,,0.00,Wunderground v.1.15,2013-03-17 06:40:00,
2013-03-16 23:45:00,55.6,39.7,30.04,NW,305,4.0,4.0,55,0.00,,,0.00,Wunderground v.1.15,2013-03-17 06:45:00,
2013-03-16 23:50:00,55.4,39.0,30.04,NNE,12,4.0,4.0,54,0.00,,,0.00,Wunderground v.1.15,2013-03-17 06:50:00,